Time,TemperatureF,DewpointF,PressureIn,WindDirection,WindDirectionDegrees,WindSpeedMPH,WindSpeedGustMPH,Humidity,HourlyPrecipIn,Conditions,Clouds,dailyrainin,SolarRadiationWatts/m^2,SoftwareType,DateUTC
2013-02-12 00:01:00,16.0,14.0,-100.00,NW,322,2.0,5.0,93,0.00,,,0.00,0.000000,,2013-02-12 09:01:00,
2013-02-12 00:11:00,16.0,14.0,-100.00,NW,322,2.0,5.0,93,0.00,,,0.00,0.000000,,2013-02-12 09:11:00,
2013-02-12 00:21:00,16.0,14.0,-100.00,NW,322,2.0,5.0,93,0.00,,,0.00,0.000000,,2013-02-12 09:21:00,
2013-02-12 00:31:00,16.0,14.0,-100.00,NW,322,2.0,5.0,93,0.00,,,0.00,0.000000,,2013-02-12 09:31:00,
2013-02-12 00:52:00,15.0,13.0,-100.00,NW,322,2.0,5.0,93,0.00,,,0.00,0.000000,,2013-02-12 09:52:00,
2013-02-12 01:01:00,15.0,13.0,-100.00,NW,322,2.0,5.0,93,0.00,,,0.00,0.000000,,2013-02-12 10:01:00,
2013-02-12 01:11:00,15.0,13.0,-100.00,NW,322,2.0,5.0,93,0.00,,,0.00,0.000000,,2013-02-12 10:11:00,
2013-02-12 01:21:00,15.0,13.0,-100.00,NW,322,2.0,5.0,93,0.00,,,0.00,0.000000,,2013-02-12 10:21:00,
2013-02-12 01:31:00,15.0,13.0,-100.00,NW,322,2.0,5.0,93,0.00,,,0.00,0.000000,,2013-02-12 10:31:00,
2013-02-12 01:52:00,15.0,13.0,-100.00,North,9,4.0,6.0,93,0.00,,,0.00,0.000000,,2013-02-12 10:52:00,
2013-02-12 02:01:00,15.0,13.0,-100.00,North,9,4.0,6.0,93,0.00,,,0.00,0.000000,,2013-02-12 11:01:00,
2013-02-12 02:11:00,15.0,13.0,-100.00,North,9,4.0,6.0,93,0.00,,,0.00,0.000000,,2013-02-12 11:11:00,
2013-02-12 02:21:00,15.0,13.0,-100.00,North,9,4.0,6.0,93,0.00,,,0.00,0.000000,,2013-02-12 11:21:00,
2013-02-12 02:31:00,15.0,13.0,-100.00,North,9,4.0,6.0,93,0.00,,,0.00,0.000000,,2013-02-12 11:31:00,
2013-02-12 02:52:00,15.0,13.0,-100.00,WNW,301,1.0,5.0,93,0.00,,,0.00,0.000000,,2013-02-12 11:52:00,
2013-02-12 03:01:00,15.0,13.0,-100.00,WNW,301,1.0,5.0,93,0.00,,,0.00,0.000000,,2013-02-12 12:01:00,
2013-02-12 03:11:00,15.0,13.0,-100.00,WNW,301,1.0,5.0,93,0.00,,,0.00,0.000000,,2013-02-12 12:11:00,
2013-02-12 03:21:00,15.0,13.0,-100.00,WNW,301,1.0,5.0,93,0.00,,,0.00,0.000000,,2013-02-12 12:21:00,
2013-02-12 03:32:00,15.0,13.0,-100.00,WNW,301,1.0,5.0,93,0.00,,,0.00,0.000000,,2013-02-12 12:32:00,
2013-02-12 03:52:00,14.0,12.0,-100.00,WNW,284,1.0,4.0,92,0.00,,,0.00,0.000000,,2013-02-12 12:52:00,
2013-02-12 04:01:00,14.0,12.0,-100.00,WNW,284,1.0,4.0,92,0.00,,,0.00,0.000000,,2013-02-12 13:01:00,
2013-02-12 04:11:00,14.0,12.0,-100.00,WNW,284,1.0,4.0,92,0.00,,,0.00,0.000000,,2013-02-12 13:11:00,
2013-02-12 04:22:00,14.0,12.0,-100.00,WNW,284,1.0,4.0,92,0.00,,,0.00,0.000000,,2013-02-12 13:22:00,
2013-02-12 04:31:00,14.0,12.0,-100.00,WNW,284,1.0,4.0,92,0.00,,,0.00,0.000000,,2013-02-12 13:31:00,
2013-02-12 04:52:00,13.0,11.0,-100.00,NW,309,3.0,5.0,91,0.00,,,0.00,0.000000,,2013-02-12 13:52:00,
2013-02-12 05:01:00,13.0,11.0,-100.00,NW,309,3.0,5.0,91,0.00,,,0.00,0.000000,,2013-02-12 14:01:00,
2013-02-12 05:11:00,13.0,11.0,-100.00,NW,309,3.0,5.0,91,0.00,,,0.00,0.000000,,2013-02-12 14:11:00,
2013-02-12 05:21:00,13.0,11.0,-100.00,NW,309,3.0,5.0,91,0.00,,,0.00,0.000000,,2013-02-12 14:21:00,
2013-02-12 05:31:00,13.0,11.0,-100.00,NW,309,3.0,5.0,91,0.00,,,0.00,0.000000,,2013-02-12 14:31:00,
2013-02-12 05:52:00,13.0,11.0,-100.00,WNW,290,1.0,2.0,91,0.00,,,0.00,0.000000,,2013-02-12 14:52:00,
2013-02-12 06:01:00,13.0,11.0,-100.00,WNW,290,1.0,2.0,91,0.00,,,0.00,0.000000,,2013-02-12 15:01:00,
2013-02-12 06:11:00,13.0,11.0,-100.00,WNW,290,1.0,2.0,91,0.00,,,0.00,0.000000,,2013-02-12 15:11:00,
2013-02-12 06:21:00,13.0,11.0,-100.00,WNW,290,1.0,2.0,91,0.00,,,0.00,0.000000,,2013-02-12 15:21:00,
2013-02-12 06:32:00,13.0,11.0,-100.00,WNW,290,1.0,2.0,91,0.00,,,0.00,0.000000,,2013-02-12 15:32:00,
2013-02-12 06:52:00,12.0,10.0,-100.00,West,275,1.0,2.0,91,0.00,,,0.00,0.000000,,2013-02-12 15:52:00,
2013-02-12 07:01:00,12.0,10.0,-100.00,West,275,1.0,2.0,91,0.00,,,0.00,0.000000,,2013-02-12 16:01:00,
2013-02-12 07:11:00,12.0,10.0,-100.00,West,275,1.0,2.0,91,0.00,,,0.00,0.000000,,2013-02-12 16:11:00,
2013-02-12 07:22:00,12.0,10.0,-100.00,West,275,1.0,2.0,91,0.00,,,0.00,0.000000,,2013-02-12 16:22:00,
2013-02-12 07:31:00,12.0,10.0,-100.00,West,275,1.0,2.0,91,0.00,,,0.00,0.000000,,2013-02-12 16:31:00,
2013-02-12 07:52:00,12.0,10.0,-100.00,WNW,303,2.0,4.0,91,0.00,,,0.00,0.000000,,2013-02-12 16:52:00,
2013-02-12 08:01:00,12.0,10.0,-100.00,WNW,303,2.0,4.0,91,0.00,,,0.00,0.000000,,2013-02-12 17:01:00,
2013-02-12 08:11:00,12.0,10.0,-100.00,WNW,303,2.0,4.0,91,0.00,,,0.00,0.000000,,2013-02-12 17:11:00,
2013-02-12 08:52:00,12.0,10.0,-100.00,NNW,338,3.0,6.0,90,0.00,,,0.00,0.000000,,2013-02-12 17:52:00,
2013-02-12 09:01:00,12.0,10.0,-100.00,NNW,338,3.0,6.0,90,0.00,,,0.00,0.000000,,2013-02-12 18:01:00,
2013-02-12 09:11:00,12.0,10.0,-100.00,NNW,338,3.0,6.0,90,0.00,,,0.00,0.000000,,2013-02-12 18:11:00,
2013-02-12 09:22:00,12.0,10.0,-100.00,NNW,338,3.0,6.0,90,0.00,,,0.00,0.000000,,2013-02-12 18:22:00,
2013-02-12 09:31:00,12.0,10.0,-100.00,NNW,338,3.0,6.0,90,0.00,,,0.00,0.000000,,2013-02-12 18:31:00,
2013-02-12 09:52:00,12.0,10.0,-100.00,North,353,4.0,6.0,90,0.00,,,0.00,23.000000,,2013-02-12 18:52:00,
2013-02-12 10:02:00,12.0,10.0,-100.00,North,353,4.0,6.0,90,0.00,,,0.00,23.000000,,2013-02-12 19:02:00,
2013-02-12 10:11:00,12.0,10.0,-100.00,North,353,4.0,6.0,90,0.00,,,0.00,23.000000,,2013-02-12 19:11:00,
2013-02-12 10:21:00,12.0,10.0,-100.00,North,353,4.0,6.0,90,0.00,,,0.00,23.000000,,2013-02-12 19:21:00,
2013-02-12 10:31:00,12.0,10.0,-100.00,North,353,4.0,6.0,90,0.00,,,0.00,23.000000,,2013-02-12 19:31:00,
2013-02-12 10:52:00,13.0,11.0,-100.00,NW,323,4.0,6.0,91,0.00,,,0.00,123.000000,,2013-02-12 19:52:00,
2013-02-12 11:01:00,13.0,11.0,-100.00,NW,323,4.0,6.0,91,0.00,,,0.00,123.000000,,2013-02-12 20:01:00,
2013-02-12 11:11:00,13.0,11.0,-100.00,NW,323,4.0,6.0,91,0.00,,,0.00,123.000000,,2013-02-12 20:11:00,
2013-02-12 11:21:00,13.0,11.0,-100.00,NW,323,4.0,6.0,91,0.00,,,0.00,123.000000,,2013-02-12 20:21:00,
2013-02-12 11:31:00,13.0,11.0,-100.00,NW,323,4.0,6.0,91,0.00,,,0.00,123.000000,,2013-02-12 20:31:00,
2013-02-12 11:52:00,14.0,12.0,-100.00,WNW,296,4.0,8.0,90,0.00,,,0.00,183.000000,,2013-02-12 20:52:00,
2013-02-12 12:01:00,14.0,12.0,-100.00,WNW,296,4.0,8.0,90,0.00,,,0.00,183.000000,,2013-02-12 21:01:00,
2013-02-12 12:11:00,14.0,12.0,-100.00,WNW,296,4.0,8.0,90,0.00,,,0.00,183.000000,,2013-02-12 21:11:00,
2013-02-12 12:21:00,14.0,12.0,-100.00,WNW,296,4.0,8.0,90,0.00,,,0.00,183.000000,,2013-02-12 21:21:00,
2013-02-12 12:31:00,14.0,12.0,-100.00,WNW,296,4.0,8.0,90,0.00,,,0.00,183.000000,,2013-02-12 21:31:00,
2013-02-12 12:52:00,15.0,13.0,-100.00,NW,316,2.0,5.0,91,0.00,,,0.00,95.000000,,2013-02-12 21:52:00,
2013-02-12 13:01:00,15.0,13.0,-100.00,NW,316,2.0,5.0,91,0.00,,,0.00,95.000000,,2013-02-12 22:01:00,
2013-02-12 13:12:00,15.0,13.0,-100.00,NW,316,2.0,5.0,91,0.00,,,0.00,95.000000,,2013-02-12 22:12:00,
2013-02-12 13:21:00,15.0,13.0,-100.00,NW,316,2.0,5.0,91,0.00,,,0.00,95.000000,,2013-02-12 22:21:00,
2013-02-12 13:31:00,15.0,13.0,-100.00,NW,316,2.0,5.0,91,0.00,,,0.00,95.000000,,2013-02-12 22:31:00,
2013-02-12 13:52:00,15.0,12.0,-100.00,WNW,299,4.0,9.0,88,0.00,,,0.00,131.000000,,2013-02-12 22:52:00,
2013-02-12 14:01:00,15.0,12.0,-100.00,WNW,299,4.0,9.0,88,0.00,,,0.00,131.000000,,2013-02-12 23:01:00,
2013-02-12 14:11:00,15.0,12.0,-100.00,WNW,299,4.0,9.0,88,0.00,,,0.00,131.000000,,2013-02-12 23:11:00,
2013-02-12 14:21:00,15.0,12.0,-100.00,WNW,299,4.0,9.0,88,0.00,,,0.00,131.000000,,2013-02-12 23:21:00,
2013-02-12 14:31:00,15.0,12.0,-100.00,WNW,299,4.0,9.0,88,0.00,,,0.00,131.000000,,2013-02-12 23:31:00,
2013-02-12 14:52:00,14.0,11.0,-100.00,NW,325,5.0,10.0,89,0.00,,,0.00,134.000000,,2013-02-12 23:52:00,
2013-02-12 15:02:00,14.0,11.0,-100.00,NW,325,5.0,10.0,89,0.00,,,0.00,134.000000,,2013-02-13 00:02:00,
2013-02-12 15:11:00,14.0,11.0,-100.00,NW,325,5.0,10.0,89,0.00,,,0.00,134.000000,,2013-02-13 00:11:00,
2013-02-12 15:21:00,14.0,11.0,-100.00,NW,325,5.0,10.0,89,0.00,,,0.00,134.000000,,2013-02-13 00:21:00,
2013-02-12 15:32:00,14.0,11.0,-100.00,NW,325,5.0,10.0,89,0.00,,,0.00,134.000000,,2013-02-13 00:32:00,
2013-02-12 17:11:00,14.0,12.0,-100.00,NNW,344,2.0,4.0,92,0.00,,,0.00,36.000000,,2013-02-13 02:11:00,
2013-02-12 17:21:00,14.0,12.0,-100.00,NNW,344,2.0,4.0,92,0.00,,,0.00,36.000000,,2013-02-13 02:21:00,
2013-02-12 17:31:00,14.0,12.0,-100.00,NNW,344,2.0,4.0,92,0.00,,,0.00,36.000000,,2013-02-13 02:31:00,
2013-02-12 17:52:00,13.0,11.0,-100.00,NW,316,1.0,4.0,93,0.00,,,-99.99,2.000000,,2013-02-13 02:52:00,
2013-02-12 18:01:00,13.0,11.0,-100.00,NW,316,1.0,4.0,93,0.00,,,-99.99,2.000000,,2013-02-13 03:01:00,
2013-02-12 18:11:00,13.0,11.0,-100.00,NW,316,1.0,4.0,93,0.00,,,-99.99,2.000000,,2013-02-13 03:11:00,
2013-02-12 18:21:00,13.0,11.0,-100.00,NW,316,1.0,4.0,93,0.00,,,-99.99,2.000000,,2013-02-13 03:21:00,
2013-02-12 18:31:00,13.0,11.0,-100.00,NW,316,1.0,4.0,93,0.00,,,-99.99,2.000000,,2013-02-13 03:31:00,
2013-02-12 18:52:00,14.0,12.0,-100.00,NW,317,1.0,4.0,93,0.00,,,0.00,0.000000,,2013-02-13 03:52:00,
2013-02-12 19:01:00,14.0,12.0,-100.00,NW,317,1.0,4.0,93,0.00,,,0.00,0.000000,,2013-02-13 04:01:00,
2013-02-12 19:11:00,14.0,12.0,-100.00,NW,317,1.0,4.0,93,0.00,,,0.00,0.000000,,2013-02-13 04:11:00,
2013-02-12 19:21:00,14.0,12.0,-100.00,NW,317,1.0,4.0,93,0.00,,,0.00,0.000000,,2013-02-13 04:21:00,
2013-02-12 19:31:00,14.0,12.0,-100.00,NW,317,1.0,4.0,93,0.00,,,0.00,0.000000,,2013-02-13 04:31:00,
2013-02-12 19:52:00,15.0,13.0,-100.00,NW,318,2.0,4.0,93,0.00,,,0.00,0.000000,,2013-02-13 04:52:00,
2013-02-12 20:01:00,15.0,13.0,-100.00,NW,318,2.0,4.0,93,0.00,,,0.00,0.000000,,2013-02-13 05:01:00,
2013-02-12 20:11:00,15.0,13.0,-100.00,NW,318,2.0,4.0,93,0.00,,,0.00,0.000000,,2013-02-13 05:11:00,
2013-02-12 20:22:00,15.0,13.0,-100.00,NW,318,2.0,4.0,93,0.00,,,0.00,0.000000,,2013-02-13 05:22:00,
2013-02-12 20:31:00,15.0,13.0,-100.00,NW,318,2.0,4.0,93,0.00,,,0.00,0.000000,,2013-02-13 05:31:00,
2013-02-12 20:52:00,16.0,15.0,-100.00,West,275,2.0,4.0,94,0.00,,,0.00,0.000000,,2013-02-13 05:52:00,
2013-02-12 21:02:00,16.0,15.0,-100.00,West,275,2.0,4.0,94,0.00,,,0.00,0.000000,,2013-02-13 06:02:00,
2013-02-12 21:11:00,16.0,15.0,-100.00,West,275,2.0,4.0,94,0.00,,,0.00,0.000000,,2013-02-13 06:11:00,
2013-02-12 21:21:00,16.0,15.0,-100.00,West,275,2.0,4.0,94,0.00,,,0.00,0.000000,,2013-02-13 06:21:00,
2013-02-12 21:31:00,16.0,15.0,-100.00,West,275,2.0,4.0,94,0.00,,,0.00,0.000000,,2013-02-13 06:31:00,
2013-02-12 21:52:00,18.0,17.0,-100.00,NW,319,2.0,4.0,94,0.00,,,0.00,0.000000,,2013-02-13 06:52:00,
2013-02-12 22:02:00,18.0,17.0,-100.00,NW,319,2.0,4.0,94,0.00,,,0.00,0.000000,,2013-02-13 07:02:00,
2013-02-12 22:21:00,18.0,17.0,-100.00,NW,319,2.0,4.0,94,0.00,,,0.00,0.000000,,2013-02-13 07:21:00,
2013-02-12 22:31:00,18.0,17.0,-100.00,NW,319,2.0,4.0,94,0.00,,,0.00,0.000000,,2013-02-13 07:31:00,
2013-02-12 22:52:00,18.0,17.0,-100.00,NNW,336,2.0,4.0,94,0.00,,,0.00,0.000000,,2013-02-13 07:52:00,
2013-02-12 23:01:00,18.0,17.0,-100.00,NNW,336,2.0,4.0,94,0.00,,,0.00,0.000000,,2013-02-13 08:01:00,
2013-02-12 23:11:00,18.0,17.0,-100.00,NNW,336,2.0,4.0,94,0.00,,,0.00,0.000000,,2013-02-13 08:11:00,
2013-02-12 23:21:00,18.0,17.0,-100.00,NNW,336,2.0,4.0,94,0.00,,,0.00,0.000000,,2013-02-13 08:21:00,
2013-02-12 23:31:00,18.0,17.0,-100.00,NNW,336,2.0,4.0,94,0.00,,,0.00,0.000000,,2013-02-13 08:31:00,
2013-02-12 23:52:00,18.0,17.0,-100.00,NNW,330,2.0,4.0,94,0.00,,,0.00,0.000000,,2013-02-13 08:52:00,